Time,TemperatureF,DewpointF,PressureIn,WindDirection,WindDirectionDegrees,WindSpeedMPH,WindSpeedGustMPH,Humidity,HourlyPrecipIn,Conditions,Clouds,dailyrainin,SoftwareType,DateUTC
2013-08-05 00:05:00,66.5,62.0,29.67,SE,138,0.0,0.0,84,0.00,,,0.00,weatherlink.com 1.10,2013-08-05 07:05:00,
2013-08-05 00:20:00,65.9,61.0,29.66,SE,137,0.0,0.0,84,0.00,,,0.00,weatherlink.com 1.10,2013-08-05 07:20:00,
2013-08-05 00:35:00,65.7,61.0,29.66,SE,137,0.0,1.0,84,0.00,,,0.00,weatherlink.com 1.10,2013-08-05 07:35:00,
2013-08-05 00:50:00,65.3,61.0,29.66,SE,137,0.0,0.0,85,0.00,,,0.00,weatherlink.com 1.10,2013-08-05 07:50:00,
2013-08-05 01:05:00,64.8,61.0,29.67,SE,137,0.0,0.0,86,0.00,,,0.00,weatherlink.com 1.10,2013-08-05 08:05:00,
2013-08-05 01:20:00,64.3,60.0,29.67,SE,137,0.0,0.0,86,0.00,,,0.00,weatherlink.com 1.10,2013-08-05 08:20:00,
2013-08-05 01:35:00,63.6,60.0,29.67,SE,138,0.0,0.0,87,0.00,,,0.00,weatherlink.com 1.10,2013-08-05 08:35:00,
2013-08-05 01:50:00,63.2,60.0,29.67,SE,137,0.0,0.0,89,0.00,,,0.00,weatherlink.com 1.10,2013-08-05 08:50:00,
2013-08-05 02:05:00,62.9,60.0,29.67,SE,137,0.0,0.0,89,0.00,,,0.00,weatherlink.com 1.10,2013-08-05 09:05:00,
2013-08-05 02:20:00,62.8,60.0,29.67,SE,137,0.0,0.0,91,0.00,,,0.00,weatherlink.com 1.10,2013-08-05 09:20:00,
2013-08-05 02:35:00,62.5,60.0,29.67,SE,137,0.0,0.0,90,0.00,,,0.00,weatherlink.com 1.10,2013-08-05 09:35:00,
2013-08-05 02:50:00,62.0,59.0,29.67,SE,137,0.0,0.0,91,0.00,,,0.00,weatherlink.com 1.10,2013-08-05 09:50:00,
2013-08-05 03:20:00,61.6,59.0,29.68,SE,137,0.0,2.0,92,0.00,,,0.00,weatherlink.com 1.10,2013-08-05 10:20:00,
2013-08-05 03:35:00,61.5,59.0,29.68,SE,137,0.0,0.0,92,0.00,,,0.00,weatherlink.com 1.10,2013-08-05 10:35:00,
2013-08-05 03:51:00,61.3,59.0,29.68,SE,138,0.0,0.0,92,0.00,,,0.00,weatherlink.com 1.10,2013-08-05 10:51:00,
2013-08-05 04:21:00,61.0,59.0,29.68,SE,137,0.0,0.0,93,0.00,,,0.00,weatherlink.com 1.10,2013-08-05 11:21:00,
2013-08-05 04:35:00,61.0,59.0,29.69,SE,138,0.0,0.0,93,0.00,,,0.00,weatherlink.com 1.10,2013-08-05 11:35:00,
2013-08-05 04:51:00,61.0,59.0,29.69,SE,137,0.0,1.0,93,0.00,,,0.00,weatherlink.com 1.10,2013-08-05 11:51:00,
2013-08-05 05:06:00,60.8,59.0,29.70,SE,138,0.0,1.0,93,0.00,,,0.00,weatherlink.com 1.10,2013-08-05 12:06:00,
2013-08-05 05:36:00,60.3,58.0,29.71,SE,137,0.0,0.0,93,0.00,,,0.00,weatherlink.com 1.10,2013-08-05 12:36:00,
2013-08-05 05:51:00,60.2,59.0,29.71,SE,138,0.0,1.0,94,0.00,,,0.00,weatherlink.com 1.10,2013-08-05 12:51:00,
2013-08-05 06:06:00,60.1,58.0,29.72,SE,137,0.0,0.0,94,0.00,,,0.00,weatherlink.com 1.10,2013-08-05 13:06:00,
2013-08-05 06:21:00,60.5,59.0,29.72,SE,138,0.0,0.0,94,0.00,,,0.00,weatherlink.com 1.10,2013-08-05 13:21:00,
2013-08-05 06:51:00,67.1,63.0,29.73,SE,138,0.0,0.0,86,0.00,,,0.00,weatherlink.com 1.10,2013-08-05 13:51:00,
2013-08-05 08:06:00,78.0,61.0,29.73,WSW,252,1.0,2.0,57,0.00,,,0.00,weatherlink.com 1.10,2013-08-05 15:06:00,
2013-08-05 08:21:00,78.6,62.0,29.73,WSW,252,0.0,2.0,56,0.00,,,0.00,weatherlink.com 1.10,2013-08-05 15:21:00,
2013-08-05 08:36:00,80.9,59.0,29.73,WSW,252,0.0,3.0,48,0.00,,,0.00,weatherlink.com 1.10,2013-08-05 15:36:00,
2013-08-05 08:51:00,82.4,58.0,29.73,WSW,252,0.0,2.0,44,0.00,,,0.00,weatherlink.com 1.10,2013-08-05 15:51:00,
2013-08-05 09:06:00,82.6,59.0,29.73,WSW,252,0.0,0.0,45,0.00,,,0.00,weatherlink.com 1.10,2013-08-05 16:06:00,
2013-08-05 09:51:00,87.5,60.0,29.72,SSW,210,2.0,3.0,40,0.00,,,0.00,weatherlink.com 1.10,2013-08-05 16:51:00,
2013-08-05 10:36:00,86.4,59.0,29.74,SSE,152,4.0,12.0,40,0.00,,,0.00,weatherlink.com 1.10,2013-08-05 17:36:00,
2013-08-05 10:51:00,86.3,60.0,29.73,SE,139,3.0,10.0,41,0.00,,,0.00,weatherlink.com 1.10,2013-08-05 17:51:00,
2013-08-05 11:07:00,87.8,60.0,29.72,SE,137,4.0,10.0,39,0.00,,,0.00,weatherlink.com 1.10,2013-08-05 18:07:00,
2013-08-05 11:22:00,90.0,62.0,29.72,SE,141,5.0,12.0,39,0.00,,,0.00,weatherlink.com 1.10,2013-08-05 18:22:00,
2013-08-05 11:37:00,91.1,58.0,29.71,SSE,150,12.0,12.0,33,0.00,,,0.00,weatherlink.com 1.10,2013-08-05 18:37:00,
2013-08-05 11:52:00,91.7,58.0,29.71,East,96,8.0,8.0,32,0.00,,,0.00,weatherlink.com 1.10,2013-08-05 18:52:00,
2013-08-05 12:07:00,91.6,59.0,29.70,East,100,8.0,13.0,33,0.00,,,0.00,weatherlink.com 1.10,2013-08-05 19:07:00,
2013-08-05 12:22:00,92.5,57.0,29.70,SE,146,9.0,12.0,30,0.00,,,0.00,weatherlink.com 1.10,2013-08-05 19:22:00,
2013-08-05 12:37:00,91.9,54.0,29.69,SE,131,2.0,11.0,28,0.00,,,0.00,weatherlink.com 1.10,2013-08-05 19:37:00,
2013-08-05 13:07:00,91.6,60.0,29.68,SE,126,5.0,10.0,34,0.00,,,0.00,weatherlink.com 1.10,2013-08-05 20:07:00,
2013-08-05 13:22:00,91.7,58.0,29.68,SSE,157,3.0,10.0,32,0.00,,,0.00,weatherlink.com 1.10,2013-08-05 20:22:00,
2013-08-05 13:37:00,92.2,57.0,29.67,ESE,123,3.0,8.0,31,0.00,,,0.00,weatherlink.com 1.10,2013-08-05 20:37:00,
2013-08-05 14:07:00,93.8,57.0,29.66,ESE,113,3.0,8.0,29,0.00,,,0.00,weatherlink.com 1.10,2013-08-05 21:07:00,
2013-08-05 14:22:00,94.6,56.0,29.64,SSW,196,1.0,7.0,27,0.00,,,0.00,weatherlink.com 1.10,2013-08-05 21:22:00,
2013-08-05 14:52:00,94.9,57.0,29.63,ESE,102,1.0,5.0,28,0.00,,,0.00,weatherlink.com 1.10,2013-08-05 21:52:00,
2013-08-05 15:07:00,95.7,57.0,29.63,ESE,118,1.0,7.0,27,0.00,,,0.00,weatherlink.com 1.10,2013-08-05 22:07:00,
2013-08-05 15:37:00,96.8,54.0,29.61,North,355,2.0,5.0,24,0.00,,,0.00,weatherlink.com 1.10,2013-08-05 22:37:00,
2013-08-05 15:52:00,97.5,53.0,29.60,SW,227,2.0,5.0,22,0.00,,,0.00,weatherlink.com 1.10,2013-08-05 22:52:00,
2013-08-05 16:07:00,96.8,56.0,29.60,ESE,113,3.0,7.0,25,0.00,,,0.00,weatherlink.com 1.10,2013-08-05 23:07:00,
2013-08-05 16:22:00,96.3,53.0,29.59,ESE,123,2.0,4.0,23,0.00,,,0.00,weatherlink.com 1.10,2013-08-05 23:22:00,
2013-08-05 16:37:00,92.9,54.0,29.59,SSE,166,5.0,13.0,27,0.00,,,0.00,weatherlink.com 1.10,2013-08-05 23:37:00,
2013-08-05 16:52:00,90.5,54.0,29.59,ESE,111,4.0,12.0,29,0.00,,,0.00,weatherlink.com 1.10,2013-08-05 23:52:00,
2013-08-05 17:08:00,89.7,53.0,29.60,ESE,112,5.0,12.0,29,0.00,,,0.00,weatherlink.com 1.10,2013-08-06 00:08:00,
2013-08-05 17:22:00,89.1,53.0,29.61,ESE,119,7.0,13.0,29,0.00,,,0.00,weatherlink.com 1.10,2013-08-06 00:22:00,
2013-08-05 17:37:00,88.1,53.0,29.61,East,84,3.0,14.0,30,0.00,,,0.00,weatherlink.com 1.10,2013-08-06 00:37:00,
2013-08-05 17:53:00,87.7,54.0,29.61,ESE,109,9.0,13.0,32,0.00,,,0.00,weatherlink.com 1.10,2013-08-06 00:53:00,
2013-08-05 18:08:00,88.7,54.0,29.61,SE,131,6.0,11.0,31,0.00,,,0.00,weatherlink.com 1.10,2013-08-06 01:08:00,
2013-08-05 18:23:00,87.7,54.0,29.62,East,93,3.0,9.0,31,0.00,,,0.00,weatherlink.com 1.10,2013-08-06 01:23:00,
2013-08-05 18:38:00,86.8,53.0,29.62,South,174,5.0,7.0,31,0.00,,,0.00,weatherlink.com 1.10,2013-08-06 01:38:00,
2013-08-05 19:08:00,83.6,56.0,29.64,SE,134,1.0,4.0,39,0.00,,,0.00,weatherlink.com 1.10,2013-08-06 02:08:00,
2013-08-05 19:23:00,82.5,56.0,29.64,SE,128,0.0,3.0,40,0.00,,,0.00,weatherlink.com 1.10,2013-08-06 02:23:00,
2013-08-05 19:38:00,81.5,56.0,29.64,South,169,0.0,1.0,41,0.00,,,0.00,weatherlink.com 1.10,2013-08-06 02:38:00,
2013-08-05 19:53:00,80.6,56.0,29.65,SE,146,0.0,2.0,43,0.00,,,0.00,weatherlink.com 1.10,2013-08-06 02:53:00,
2013-08-05 20:23:00,78.7,56.0,29.65,ESE,105,0.0,2.0,45,0.00,,,0.00,weatherlink.com 1.10,2013-08-06 03:23:00,
2013-08-05 20:38:00,77.9,57.0,29.65,ESE,105,0.0,0.0,48,0.00,,,0.00,weatherlink.com 1.10,2013-08-06 03:38:00,
2013-08-05 20:53:00,76.7,57.0,29.65,ESE,105,0.0,0.0,50,0.00,,,0.00,weatherlink.com 1.10,2013-08-06 03:53:00,
2013-08-05 21:08:00,75.7,57.0,29.66,ESE,105,0.0,1.0,53,0.00,,,0.00,weatherlink.com 1.10,2013-08-06 04:08:00,
2013-08-05 21:23:00,75.0,58.0,29.65,ESE,105,0.0,0.0,56,0.00,,,0.00,weatherlink.com 1.10,2013-08-06 04:23:00,
2013-08-05 21:38:00,74.6,60.0,29.66,ESE,105,0.0,0.0,61,0.00,,,0.00,weatherlink.com 1.10,2013-08-06 04:38:00,
2013-08-05 21:53:00,74.3,57.0,29.66,WNW,290,0.0,2.0,56,0.00,,,0.00,weatherlink.com 1.10,2013-08-06 04:53:00,
2013-08-05 22:08:00,74.2,59.0,29.66,WNW,290,0.0,0.0,59,0.00,,,0.00,weatherlink.com 1.10,2013-08-06 05:08:00,
2013-08-05 22:23:00,73.7,59.0,29.66,WNW,290,0.0,0.0,61,0.00,,,0.00,weatherlink.com 1.10,2013-08-06 05:23:00,
2013-08-05 22:38:00,73.4,59.0,29.66,WNW,290,0.0,1.0,62,0.00,,,0.00,weatherlink.com 1.10,2013-08-06 05:38:00,
2013-08-05 22:53:00,73.0,60.0,29.66,WNW,290,0.0,2.0,63,0.00,,,0.00,weatherlink.com 1.10,2013-08-06 05:53:00,
2013-08-05 23:08:00,72.9,60.0,29.66,WNW,290,0.0,1.0,65,0.00,,,0.00,weatherlink.com 1.10,2013-08-06 06:08:00,
2013-08-05 23:23:00,72.8,62.0,29.66,WNW,290,0.0,2.0,68,0.00,,,0.00,weatherlink.com 1.10,2013-08-06 06:23:00,
2013-08-05 23:38:00,72.5,61.0,29.66,WNW,290,0.0,0.0,67,0.00,,,0.00,weatherlink.com 1.10,2013-08-06 06:38:00,
2013-08-05 23:53:00,72.2,61.0,29.65,WNW,290,0.0,1.0,67,0.00,,,0.00,weatherlink.com 1.10,2013-08-06 06:53:00,